Time,TemperatureF,DewpointF,PressureIn,WindDirection,WindDirectionDegrees,WindSpeedMPH,WindSpeedGustMPH,Humidity,HourlyPrecipIn,Conditions,Clouds,dailyrainin,SoftwareType,DateUTC
2013-06-08 00:01:00,50.6,49.8,29.93,NE,37,0.0,0.0,97,0.03,,---,0.00,VWS V14.01,2013-06-08 04:01:00,
2013-06-08 00:31:00,50.7,49.9,29.93,NE,37,0.0,0.0,97,0.04,,---,0.02,VWS V14.01,2013-06-08 04:31:00,
2013-06-08 01:01:00,50.7,49.9,29.92,NE,37,0.0,1.0,97,0.05,,---,0.04,VWS V14.01,2013-06-08 05:01:00,
2013-06-08 01:31:00,50.6,49.8,29.89,NE,46,0.0,0.0,97,0.06,,---,0.07,VWS V14.01,2013-06-08 05:31:00,
2013-06-08 01:46:00,50.5,49.7,29.88,NE,46,0.0,0.0,97,0.07,,---,0.09,VWS V14.01,2013-06-08 05:46:00,
2013-06-08 02:01:00,50.6,49.8,29.86,NE,46,0.0,0.0,97,0.08,,---,0.11,VWS V14.01,2013-06-08 06:01:00,
2013-06-08 02:16:00,50.6,49.8,29.86,NE,46,0.0,0.0,97,0.08,,---,0.12,VWS V14.01,2013-06-08 06:16:00,
2013-06-08 03:01:00,50.7,49.9,29.84,NE,46,0.0,0.0,97,0.09,,---,0.18,VWS V14.01,2013-06-08 07:01:00,
2013-06-08 03:31:00,50.7,49.9,29.83,NE,46,0.0,0.0,97,0.11,,---,0.23,VWS V14.01,2013-06-08 07:31:00,
2013-06-08 04:16:00,51.2,50.4,29.81,WNW,282,0.0,0.0,97,0.14,,---,0.32,VWS V14.01,2013-06-08 08:16:00,
2013-06-08 04:31:00,51.2,50.4,29.80,NNW,342,0.0,2.0,97,0.14,,---,0.34,VWS V14.01,2013-06-08 08:31:00,
2013-06-08 04:46:00,51.4,50.6,29.81,NNW,342,0.0,0.0,97,0.14,,---,0.37,VWS V14.01,2013-06-08 08:46:00,
2013-06-08 05:16:00,51.4,50.6,29.80,NNW,342,0.0,0.0,97,0.09,,---,0.39,VWS V14.01,2013-06-08 09:16:00,
2013-06-08 05:31:00,51.5,50.7,29.79,NE,39,0.0,4.0,97,0.07,,---,0.39,VWS V14.01,2013-06-08 09:31:00,
2013-06-08 05:46:00,51.5,50.7,29.80,NE,41,1.0,4.0,97,0.05,,---,0.39,VWS V14.01,2013-06-08 09:46:00,
2013-06-08 06:16:00,51.9,50.8,29.79,North,360,1.0,3.0,96,0.02,,---,0.40,VWS V14.01,2013-06-08 10:16:00,
2013-06-08 06:46:00,52.6,51.5,29.79,West,279,0.0,3.0,96,0.01,,---,0.40,VWS V14.01,2013-06-08 10:46:00,
2013-06-08 07:01:00,52.9,51.8,29.79,North,357,0.0,2.0,96,0.01,,---,0.40,VWS V14.01,2013-06-08 11:01:00,
2013-06-08 07:46:00,54.1,52.7,29.78,North,1,0.0,3.0,95,0.00,,---,0.40,VWS V14.01,2013-06-08 11:46:00,
2013-06-08 08:01:00,54.8,53.4,29.78,NNE,30,0.0,4.0,95,0.00,,---,0.40,VWS V14.01,2013-06-08 12:01:00,
2013-06-08 08:31:00,55.9,53.9,29.79,ENE,65,0.0,5.0,93,0.00,,---,0.40,VWS V14.01,2013-06-08 12:31:00,
2013-06-08 08:46:00,56.1,53.8,29.79,ENE,68,2.0,5.0,92,0.01,,---,0.41,VWS V14.01,2013-06-08 12:46:00,
2013-06-08 09:16:00,57.5,54.6,29.79,East,79,2.0,5.0,90,0.01,,---,0.41,VWS V14.01,2013-06-08 13:16:00,
2013-06-08 09:31:00,58.1,54.3,29.79,West,281,0.0,6.0,87,0.01,,---,0.41,VWS V14.01,2013-06-08 13:31:00,
2013-06-08 10:16:00,59.8,56.2,29.80,NE,49,2.0,4.0,88,0.00,,---,0.41,VWS V14.01,2013-06-08 14:16:00,
2013-06-08 10:31:00,59.9,55.4,29.81,SE,126,0.0,6.0,85,0.00,,---,0.41,VWS V14.01,2013-06-08 14:31:00,
2013-06-08 11:01:00,60.7,56.2,29.81,NW,308,3.0,4.0,85,0.00,,---,0.41,VWS V14.01,2013-06-08 15:01:00,
2013-06-08 12:01:00,61.7,56.5,29.83,ENE,64,0.0,7.0,83,0.00,,---,0.41,VWS V14.01,2013-06-08 16:01:00,
2013-06-08 12:16:00,62.0,56.5,29.84,NE,55,0.0,5.0,82,0.00,,---,0.41,VWS V14.01,2013-06-08 16:16:00,
2013-06-08 12:31:00,61.8,57.2,29.85,West,269,0.0,5.0,85,0.00,,---,0.41,VWS V14.01,2013-06-08 16:31:00,
2013-06-08 12:46:00,61.9,58.0,29.85,NW,324,0.0,6.0,87,0.00,,---,0.41,VWS V14.01,2013-06-08 16:46:00,
2013-06-08 13:01:00,62.2,58.0,29.85,NW,315,0.0,4.0,86,0.00,,---,0.41,VWS V14.01,2013-06-08 17:01:00,
2013-06-08 13:16:00,62.7,57.8,29.86,SSW,204,4.0,5.0,84,0.00,,---,0.41,VWS V14.01,2013-06-08 17:16:00,
2013-06-08 13:31:00,62.3,57.4,29.85,North,1,0.0,6.0,84,0.00,,---,0.41,VWS V14.01,2013-06-08 17:31:00,
2013-06-08 13:46:00,63.0,57.8,29.84,WNW,297,4.0,5.0,83,0.00,,---,0.41,VWS V14.01,2013-06-08 17:46:00,
2013-06-08 14:01:00,63.0,57.8,29.86,NW,307,0.0,5.0,83,0.00,,---,0.41,VWS V14.01,2013-06-08 18:01:00,
2013-06-08 14:16:00,62.5,56.9,29.87,SE,145,0.0,4.0,82,0.00,,---,0.41,VWS V14.01,2013-06-08 18:16:00,
2013-06-08 14:31:00,62.2,57.6,29.87,North,4,0.0,3.0,85,0.00,,---,0.41,VWS V14.01,2013-06-08 18:31:00,
2013-06-08 14:46:00,62.6,57.4,29.87,NW,309,0.0,4.0,83,0.00,,---,0.41,VWS V14.01,2013-06-08 18:46:00,
2013-06-08 15:31:00,62.1,56.9,29.88,North,3,0.0,9.0,83,0.00,,---,0.41,VWS V14.01,2013-06-08 19:31:00,
2013-06-08 16:01:00,62.5,56.9,29.90,NNW,330,6.0,7.0,82,0.00,,---,0.41,VWS V14.01,2013-06-08 20:01:00,
2013-06-08 16:31:00,61.9,56.7,29.91,North,1,2.0,5.0,83,0.00,,---,0.41,VWS V14.01,2013-06-08 20:31:00,
2013-06-08 16:46:00,61.7,56.8,29.92,SW,216,1.0,3.0,84,0.00,,---,0.41,VWS V14.01,2013-06-08 20:46:00,
2013-06-08 17:01:00,61.1,56.2,29.93,WNW,289,0.0,5.0,84,0.00,,---,0.41,VWS V14.01,2013-06-08 21:01:00,
2013-06-08 17:16:00,60.8,55.6,29.93,NW,316,0.0,3.0,83,0.00,,---,0.41,VWS V14.01,2013-06-08 21:16:00,
2013-06-08 17:31:00,60.7,55.8,29.94,NNE,25,2.0,3.0,84,0.00,,---,0.41,VWS V14.01,2013-06-08 21:31:00,
2013-06-08 18:01:00,60.2,55.0,29.95,East,95,4.0,8.0,83,0.00,,---,0.41,VWS V14.01,2013-06-08 22:01:00,
2013-06-08 18:16:00,59.7,55.2,29.96,WSW,241,0.0,8.0,85,0.00,,---,0.41,VWS V14.01,2013-06-08 22:16:00,
2013-06-08 19:01:00,59.7,54.9,29.99,West,266,0.0,0.0,84,0.00,,---,0.41,VWS V14.01,2013-06-08 23:01:00,
2013-06-08 19:46:00,59.1,54.6,29.99,North,360,0.0,1.0,85,0.00,,---,0.41,VWS V14.01,2013-06-08 23:46:00,
2013-06-08 20:01:00,58.9,54.4,29.99,North,4,0.0,3.0,85,0.00,,---,0.41,VWS V14.01,2013-06-09 00:01:00,
2013-06-08 20:31:00,58.4,54.2,29.99,ENE,60,0.0,2.0,86,0.00,,---,0.41,VWS V14.01,2013-06-09 00:31:00,
2013-06-08 21:01:00,57.9,53.7,29.99,NNE,30,0.0,2.0,86,0.00,,---,0.41,VWS V14.01,2013-06-09 01:01:00,
2013-06-08 21:16:00,57.4,54.2,30.00,NNE,30,0.0,0.0,89,0.00,,---,0.41,VWS V14.01,2013-06-09 01:16:00,
2013-06-08 21:31:00,57.1,53.9,30.00,NE,37,0.0,2.0,89,0.00,,---,0.41,VWS V14.01,2013-06-09 01:31:00,
2013-06-08 22:01:00,56.6,54.0,30.02,NE,37,0.0,0.0,91,0.00,,---,0.41,VWS V14.01,2013-06-09 02:01:00,
2013-06-08 22:16:00,56.1,53.8,30.02,NE,37,0.0,0.0,92,0.00,,---,0.41,VWS V14.01,2013-06-09 02:16:00,
2013-06-08 22:31:00,56.0,54.0,30.03,NE,37,0.0,0.0,93,0.00,,---,0.41,VWS V14.01,2013-06-09 02:31:00,
2013-06-08 22:46:00,56.0,54.0,30.04,WSW,254,0.0,1.0,93,0.00,,---,0.41,VWS V14.01,2013-06-09 02:46:00,
2013-06-08 23:01:00,56.1,54.1,30.04,WSW,254,0.0,0.0,93,0.00,,---,0.41,VWS V14.01,2013-06-09 03:01:00,
2013-06-08 23:16:00,56.0,54.0,30.04,WSW,254,0.0,0.0,93,0.00,,---,0.41,VWS V14.01,2013-06-09 03:16:00,
2013-06-08 23:46:00,56.4,54.1,30.05,SW,235,0.0,2.0,92,0.00,,---,0.41,VWS V14.01,2013-06-09 03:46:00,